SCP
0 0 0 0 0 1 1 1 1 0 0 0 0 0 0 1 1 1 1 1 1 1 1 1 1 1 1 1 1 1 1 1 1 1 1 1 1 1 1 1 1 1 1
0 0 0 0 0 0 1 1 1 1 0 0 0 0 1 1 1 1 1 1 1 1 1 1 1 1 1 1 1 1 1 1 1 1 1 1 1 1 1 1 1 1 1
0 0 0 0 0 0 0 1 1 1 1 0 0 0 1 1 1 1 1 1 1 1 1 1 1 1 1 1 1 1 1 1 1 1 1 1 1 1 1 1 1 1 1
0 0 0 0 0 0 0 0 0 1 1 0 0 0 0 0 1 1 1 1 1 1 1 1 1 1 1 1 1 1 1 1 1 1 1 1 1 1 1 1 1 1 1
0 0 0 0 0 0 0 0 0 0 1 1 0 0 0 0 1 1 1 1 1 1 1 1 1 1 1 1 1 1 1 1 1 1 1 1 1 1 1 1 1 0 1
0 0 0 0 0 0 0 0 0 0 0 0 0 0 0 1 0 0 1 1 1 1 1 1 1 1 1 1 1 1 1 1 1 1 1 1 1 1 1 1 0 1 1
0 0 0 0 0 0 0 0 0 0 0 0 0 0 0 0 0 0 0 0 1 1 1 1 1 1 1 1 1 1 1 1 1 1 1 1 1 1 1 1 1 1 1
0 0 0 0 0 0 0 0 0 0 0 0 0 0 0 0 0 0 0 0 1 1 1 1 1 1 1 1 1 1 1 1 1 1 1 1 1 1 1 1 1 1 1
0 0 0 0 0 0 0 0 0 0 0 0 0 0 0 0 0 0 0 0 0 1 1 1 1 1 1 1 1 1 1 1 1 1 1 1 1 1 1 1 1 1 1
0 0 0 0 0 0 0 0 0 0 0 0 0 0 0 0 0 0 0 0 0 1 1 1 1 1 1 1 1 1 1 1 1 1 1 1 1 1 1 1 1 1 1
0 0 0 0 0 0 0 0 0 0 0 0 0 0 0 0 0 0 0 0 0 1 1 1 1 1 1 1 1 1 1 1 1 1 1 1 1 1 1 1 1 1 1
0 0 0 0 0 0 0 0 0 0 0 0 0 0 0 0 0 0 0 0 0 0 0 1 1 1 1 1 1 1 1 1 1 1 1 1 1 1 1 1 1 1 1
0 0 0 0 0 0 0 0 0 0 0 0 0 0 0 0 0 0 0 0 0 0 0 0 0 1 1 1 1 1 1 1 1 1 1 1 1 1 1 1 1 1 1
0 0 0 0 0 0 0 0 0 0 0 0 0 0 0 0 0 0 0 0 0 0 0 0 0 1 1 1 1 1 1 1 1 1 1 1 1 1 1 1 1 1 1
0 0 0 0 0 0 0 0 0 0 0 0 0 0 0 0 0 0 0 0 0 0 0 0 0 0 1 1 1 1 1 1 0 1 1 1 1 1 1 1 1 1 1
0 0 0 0 0 0 0 0 0 0 0 0 0 0 0 0 0 0 0 0 0 0 0 0 0 0 1 1 1 1 1 1 0 0 1 1 1 1 1 1 1 1 1
0 0 0 0 0 0 0 0 0 0 0 0 0 0 0 0 0 0 0 0 0 0 0 0 0 0 1 1 0 0 0 0 0 0 0 0 1 1 1 1 1 1 1
0 0 0 0 0 0 0 0 0 0 0 0 0 0 0 0 0 0 0 0 0 0 0 0 0 0 0 0 0 0 0 0 1 0 0 0 0 0 1 1 1 1 0
0 0 0 0 0 0 0 0 0 0 0 0 0 0 0 0 0 0 0 0 0 0 0 0 0 0 0 0 0 0 0 0 1 0 0 0 0 0 1 1 1 1 0
0 0 0 0 0 0 0 0 0 0 0 0 0 0 0 0 0 0 0 0 0 0 0 0 0 0 0 0 0 0 0 0 0 0 0 0 1 0 0 0 0 0 0
0 0 0 0 0 0 0 0 0 0 0 0 0 0 0 0 0 0 0 0 0 0 0 0 0 0 0 0 0 0 0 0 0 0 0 0 1 0 0 0 0 0 0
0 0 0 0 0 0 0 0 0 0 0 0 0 0 0 0 0 0 0 0 0 0 0 0 0 0 0 0 0 0 0 0 0 0 0 0 0 0 0 0 0 0 0
0 0 0 0 0 0 0 0 0 0 0 0 0 0 0 0 0 0 0 0 0 0 0 0 0 0 0 0 0 0 0 0 0 0 0 0 0 0 0 0 0 0 0
0 0 0 0 0 0 0 0 0 0 0 0 0 0 0 0 0 0 0 0 0 0 0 0 0 0 0 0 0 0 0 0 0 0 0 0 0 0 0 0 0 0 0
0 0 0 0 0 0 0 0 0 0 0 0 0 0 0 0 0 0 0 0 0 0 0 0 0 0 0 0 0 0 0 0 0 0 0 0 0 0 0 0 0 0 0
0 0 0 0 0 0 0 0 0 0 0 0 0 0 0 0 0 0 0 0 0 0 0 0 0 0 0 0 0 0 0 0 0 0 0 0 0 0 0 1 1 0 0
Wind_Speed
1 1 1 1 1 1 1 1 1 2 2 2 2 2 2 3 2 2 2 6 7 8 9 9 9 10 10 10 10 10 10 10 10 9 9 9 10 10 10 10 10 11 11
0 1 1 1 1 1 1 1 1 1 2 1 2 2 2 2 3 2 2 3 6 7 8 9 10 10 11 10 10 10 10 11 11 10 10 10 10 9 9 10 10 10 10
1 0 1 1 1 1 1 1 2 1 1 2 2 2 2 2 2 2 2 2 2 5 7 9 10 11 11 11 11 10 11 11 11 11 10 10 10 10 10 9 9 9 9
2 1 0 1 1 1 1 1 1 1 2 2 2 2 2 1 2 2 2 2 2 3 4 7 9 10 11 11 11 11 11 11 11 11 11 10 10 10 10 10 9 8 8
2 1 0 1 1 1 1 1 1 0 1 2 2 2 1 1 1 2 2 2 2 2 2 5 7 8 9 10 11 11 11 12 12 12 12 11 10 10 10 10 9 9 8
2 1 1 1 1 1 1 1 1 1 1 1 2 2 1 1 1 1 1 1 1 2 2 3 3 4 8 9 10 10 11 11 12 13 13 12 11 10 10 10 10 9 9
1 1 1 1 1 0 1 1 0 1 1 1 2 2 3 2 1 0 0 0 0 1 1 2 2 2 3 7 8 10 11 11 12 13 13 12 12 11 11 10 10 10 10
1 1 1 1 1 0 1 1 1 1 1 1 2 1 2 3 3 2 1 0 0 0 1 2 2 3 3 2 4 8 9 10 11 12 12 12 12 11 11 11 11 11 10
2 1 1 1 1 0 1 1 1 1 0 1 1 2 2 1 2 2 2 1 1 1 0 0 2 2 3 3 3 5 7 8 9 11 11 12 12 12 12 11 11 11 11
3 2 2 1 1 1 1 1 1 1 2 0 1 0 1 2 1 1 2 2 1 1 0 0 1 1 2 2 3 5 6 6 8 10 11 11 12 12 12 12 11 11 12
3 3 2 1 1 1 1 1 1 1 1 2 1 0 1 1 1 1 0 2 2 1 1 1 0 1 2 2 2 4 7 7 7 8 9 10 10 11 11 12 12 12 12
3 3 2 2 1 1 1 1 1 1 1 2 1 1 1 1 1 1 1 0 0 1 1 1 0 1 1 2 3 4 5 6 6 7 7 8 9 9 10 10 11 12 12
2 3 2 1 1 1 1 1 1 1 2 2 2 1 1 2 2 2 2 1 0 1 1 1 1 0 1 2 2 4 4 6 6 6 6 7 7 7 8 9 10 11 12
3 3 2 1 1 1 0 1 1 1 1 2 2 1 1 1 2 2 3 2 1 1 1 1 1 1 0 1 2 3 2 5 5 5 6 6 6 6 6 7 8 9 10
2 1 1 1 1 1 1 1 1 0 1 1 1 1 1 1 1 1 2 3 3 2 1 1 1 1 1 1 2 2 2 4 5 5 5 6 6 6 6 6 6 6 6
1 1 1 1 1 1 1 1 1 0 1 0 0 0 1 1 0 1 1 2 2 3 2 1 1 1 1 0 2 2 2 4 5 5 5 5 6 6 6 6 6 6 6
1 0 1 1 1 1 1 1 0 1 1 1 1 1 0 1 1 1 1 1 1 2 2 1 0 0 0 0 0 0 1 2 2 5 6 6 6 6 6 6 7 7 7
1 1 0 1 1 1 1 1 0 0 1 0 0 1 0 1 1 1 1 1 1 2 3 2 0 0 0 1 1 1 1 1 1 4 6 6 6 6 6 7 7 7 7
1 0 1 1 1 0 1 0 0 0 1 0 1 1 1 2 1 1 1 1 1 1 2 2 1 0 0 0 1 0 0 0 1 2 5 6 6 6 6 6 6 6 7
1 1 1 0 0 0 0 0 1 1 1 0 0 1 1 2 2 2 2 1 1 1 1 2 1 0 0 1 1 0 1 1 1 1 1 2 4 5 6 6 6 7 7
1 2 1 0 1 0 0 1 1 1 1 1 1 1 0 1 2 2 2 2 2 2 1 1 1 0 0 0 0 0 0 1 1 1 0 1 1 2 3 4 6 7 7
1 1 1 1 1 1 0 2 3 2 1 1 1 1 1 1 0 2 3 4 5 4 3 2 1 1 1 1 1 1 1 0 2 1 0 2 1 2 2 2 5 6 6
2 2 2 1 1 2 0 2 3 3 2 1 1 1 1 1 1 0 1 1 2 3 5 4 3 3 3 3 2 1 1 2 2 2 1 2 1 2 2 3 5 5 6
2 2 2 2 1 2 1 1 3 3 2 1 0 1 0 1 1 1 1 1 0 1 2 2 3 3 3 3 3 3 2 1 1 1 1 1 1 2 2 2 4 4 4
2 2 2 2 2 2 1 1 3 2 2 1 1 0 0 0 1 2 2 2 0 2 1 2 2 2 2 2 2 2 1 1 1 2 0 1 1 2 2 2 2 3 3
3 3 2 2 2 2 1 1 4 2 2 0 1 2 1 1 1 2 2 2 1 1 1 1 1 2 1 1 0 2 3 2 1 1 1 1 1 1 2 2 2 1 2
Wind_Direction
347 332 323 326 313 313 318 308 307 307 301 293 279 258 245 242 237 209 230 231 220 213 206 198 196 194 189 186 183 179 174 166 160 156 151 147 144 141 141 143 142 145 146
67 13 1 348 326 316 305 303 313 309 300 302 299 278 249 240 232 219 214 228 228 225 218 207 201 195 191 189 187 184 178 172 166 163 157 152 150 149 148 148 147 149 150
54 51 25 333 309 313 341 5 352 350 331 320 302 291 261 245 229 222 211 215 232 235 228 216 204 199 196 192 189 186 181 176 170 167 163 158 155 155 155 156 154 153 154
55 50 26 305 305 340 0 360 6 347 326 315 299 292 281 253 232 220 210 211 224 235 234 226 208 201 198 193 189 187 185 180 174 172 169 165 163 161 160 160 158 157 158
33 44 345 301 320 7 357 324 21 0 314 314 295 288 300 288 255 231 208 209 218 222 218 224 212 203 196 190 190 189 187 184 182 178 174 171 170 168 165 163 163 164 164
16 32 344 329 350 16 354 345 327 327 285 294 314 345 336 326 315 225 215 218 219 220 214 213 203 206 196 188 187 188 186 184 185 184 180 178 176 175 174 173 172 172 172
2 19 350 341 349 355 285 299 345 349 326 347 38 5 351 357 3 342 155 179 193 231 205 198 185 175 193 190 186 188 187 185 185 184 184 184 184 182 182 180 179 179 179
333 337 352 322 328 343 343 359 63 60 345 45 98 73 7 353 350 360 26 81 36 35 175 192 170 171 173 167 189 189 186 187 188 187 188 188 187 186 188 187 187 188 187
304 308 303 293 301 184 236 251 172 134 87 346 96 128 128 242 317 339 3 26 39 53 39 200 175 170 170 164 174 194 190 190 193 193 192 193 193 193 193 193 196 197 196
302 292 287 278 268 232 233 246 182 161 134 74 345 73 145 159 153 346 345 0 25 51 20 251 187 169 164 159 174 180 188 192 196 198 197 195 196 199 201 201 202 204 204
304 302 291 288 273 247 238 239 189 164 156 161 161 138 79 74 114 146 321 342 356 346 346 310 173 157 165 160 174 181 185 191 200 201 201 200 201 204 206 207 209 211 209
308 314 310 304 279 249 235 216 198 175 173 164 161 153 152 145 175 157 166 248 329 318 335 6 91 181 172 163 184 173 179 187 197 201 203 204 207 210 211 212 214 215 213
293 300 309 297 284 252 231 187 164 176 170 164 178 191 186 187 176 160 148 165 110 330 353 350 307 228 191 177 180 172 184 191 197 202 205 208 208 209 214 217 221 219 218
262 285 298 292 293 285 283 147 156 200 183 179 190 182 190 213 181 171 163 148 110 21 9 318 335 329 285 189 175 164 183 197 197 202 206 207 208 207 210 217 225 227 226
277 308 325 322 335 352 19 89 85 163 141 175 193 186 190 233 193 174 155 150 147 143 249 269 299 304 296 203 177 166 182 203 201 204 206 207 207 205 209 214 221 228 229
307 348 352 358 357 5 38 63 40 49 97 76 163 159 207 211 134 126 140 140 143 149 177 236 239 239 257 236 190 179 201 206 206 210 213 209 211 209 212 216 221 223 225
281 1 15 25 18 14 34 60 38 56 88 45 53 126 214 156 115 106 113 123 134 138 157 257 299 287 177 172 18 206 206 205 212 215 217 215 218 216 217 220 223 222 221
263 227 100 42 21 18 40 95 356 46 110 139 198 97 32 126 107 98 111 123 141 154 153 167 286 358 8 197 181 203 247 215 218 225 223 223 226 223 224 226 225 223 221
258 234 103 71 27 31 58 111 153 128 116 174 187 158 172 128 121 119 124 132 139 132 139 151 183 315 336 54 86 80 61 333 255 230 225 226 231 231 229 228 226 225 225
177 171 168 212 267 155 83 98 105 87 85 113 174 159 173 162 172 160 154 159 137 113 121 133 141 74 6 356 82 76 356 330 289 273 249 229 236 236 237 232 228 228 228
181 180 177 305 326 320 164 129 134 125 108 79 57 59 119 173 180 170 158 163 145 129 119 125 138 80 356 26 213 215 242 305 295 248 275 261 244 247 245 244 237 231 230
201 174 198 225 296 298 60 126 130 123 122 112 81 26 3 17 196 182 166 158 157 155 161 159 170 184 230 222 206 188 165 47 298 279 222 275 227 246 246 234 238 236 232
202 195 218 216 252 283 293 114 131 126 115 120 115 58 6 7 31 113 123 118 160 172 172 167 176 206 208 211 184 194 199 197 232 254 162 276 270 260 256 247 244 241 239
200 206 214 211 221 271 248 125 123 111 99 90 116 155 159 327 317 156 142 115 181 255 224 187 188 211 220 216 195 194 198 215 290 294 159 230 279 267 276 263 253 237 238
201 203 201 197 200 266 273 141 118 107 96 29 336 333 119 5 355 120 126 136 65 316 280 196 201 223 226 213 178 127 119 108 329 306 307 178 278 293 294 289 287 270 257
196 193 193 195 194 229 257 159 135 124 118 88 359 352 11 40 24 92 131 142 155 287 343 16 10 355 352 352 122 163 166 159 174 274 276 166 282 349 323 307 305 314 293